Temperature
17 17 17 17 17 17 17 17 17 17 17 17 17 17 17 17 17 16 16 16 16 16 16 16 16 16 16 16 16 16 16 16 16 17 17 17 17 17 16 16 16 16 16
17 17 17 17 17 17 17 17 17 17 17 17 17 17 17 17 17 16 16 16 16 16 16 16 16 16 16 16 16 16 16 16 16 16 16 16 16 16 16 16 16 16 16
17 17 17 17 17 17 17 17 17 17 17 17 17 17 16 16 16 16 16 16 16 16 16 16 16 16 16 16 16 16 16 16 16 16 16 16 16 16 16 16 16 16 15
17 17 17 17 17 17 17 17 17 17 16 16 16 16 16 16 16 16 16 16 16 16 16 16 16 16 16 16 16 16 16 15 15 15 15 15 15 15 15 15 15 15 15
17 17 17 17 17 17 17 17 17 17 16 16 16 16 16 16 16 16 16 16 16 16 16 16 15 15 15 15 15 15 15 15 15 15 15 15 15 15 15 15 15 15 15
17 17 17 17 17 17 17 16 16 16 16 16 16 16 16 16 16 16 16 16 16 16 15 15 15 15 15 15 15 15 15 15 15 15 14 14 15 14 14 14 14 14 14
17 17 17 17 17 16 16 16 16 16 16 16 16 16 16 16 16 15 15 15 15 15 15 15 15 15 15 15 14 14 14 14 14 14 14 14 14 14 14 13 13 13 14
16 16 16 16 16 16 16 16 16 16 16 16 15 15 15 15 15 15 15 15 15 15 14 14 14 14 14 14 14 14 14 14 13 13 13 13 13 13 13 13 13 13 13
16 16 16 16 16 16 16 16 16 15 15 15 15 15 15 15 15 15 14 14 14 14 14 14 14 13 13 13 13 13 13 13 13 13 13 12 12 12 12 12 12 12 12
16 16 16 16 16 16 15 15 15 15 15 15 15 14 14 14 14 14 14 14 14 13 13 13 13 13 13 13 13 12 12 12 12 12 12 12 12 12 12 11 11 11 11
15 15 15 15 15 15 15 15 15 15 14 14 14 14 14 13 13 13 13 13 13 13 13 12 12 12 12 12 12 12 12 11 11 11 11 11 11 11 11 11 11 11 10
15 15 15 15 15 15 15 14 14 14 14 14 13 13 13 13 13 13 12 12 12 12 12 12 11 11 11 11 11 11 11 11 11 11 11 10 10 10 10 10 10 10 10
15 15 15 15 14 14 14 14 14 13 13 13 13 12 12 12 12 12 12 12 11 11 11 11 11 11 11 11 10 10 10 10 10 10 10 10 9 9 9 9 9 9 9
14 14 14 14 14 14 14 13 13 13 13 12 12 12 11 11 11 11 11 11 11 11 10 10 10 10 10 10 9 9 9 9 9 9 9 8 9 9 9 8 8 8 8
14 13 13 13 13 13 13 12 12 12 12 12 11 11 11 10 10 10 10 10 10 9 9 9 9 9 9 9 9 8 8 8 8 8 8 8 8 8 8 7 7 7 7
13 13 13 12 12 12 12 11 11 11 11 10 10 10 10 9 9 9 9 9 9 8 8 8 8 8 8 8 7 7 7 7 7 7 7 7 6 6 6 6 6 6 6
12 12 12 12 12 11 11 11 10 10 9 9 9 9 9 9 8 8 8 8 8 8 8 7 7 7 7 6 6 6 6 6 6 6 5 5 5 5 5 5 5 5 5
11 11 11 11 11 10 10 10 10 9 9 8 8 8 8 8 8 7 7 7 7 7 7 6 6 6 6 5 5 5 5 5 5 5 5 5 4 4 4 4 4 4 4
11 10 10 10 10 10 9 9 9 8 8 8 8 7 7 7 7 7 7 7 6 6 6 5 5 5 5 5 5 4 4 4 4 4 4 4 4 4 4 4 4 4 4
10 10 10 10 9 9 9 8 8 8 7 7 7 7 6 6 6 6 6 5 5 5 5 5 4 4 4 4 4 4 3 3 3 3 3 3 3 3 3 3 3 3 3
9 9 9 9 9 8 8 8 7 7 7 6 6 6 6 6 5 5 5 5 4 4 4 4 3 3 3 3 3 3 3 3 3 3 2 2 2 2 2 3 3 3 3
9 9 9 8 8 8 8 7 7 7 6 6 5 5 5 5 5 4 4 4 4 3 3 3 3 3 3 2 2 2 2 2 2 2 2 2 2 2 2 2 2 2 2
8 8 8 8 8 7 7 7 6 6 5 5 5 5 4 4 4 4 3 3 3 3 3 2 2 2 2 2 2 2 2 2 2 2 2 2 2 2 2 2 2 2 2
8 8 7 7 7 7 6 6 5 5 5 5 4 4 4 3 3 3 3 3 2 2 2 2 2 2 2 2 2 1 1 1 1 1 1 1 1 1 1 2 2 2 2
7 7 7 7 6 6 6 5 5 5 4 4 4 3 3 3 3 3 2 2 2 2 2 2 2 1 1 1 1 1 1 1 1 1 1 1 1 1 1 1 1 2 2
7 7 6 6 6 5 5 5 4 4 4 4 3 3 3 3 2 2 2 2 2 2 2 1 1 1 1 1 1 1 1 1 1 1 1 1 1 1 1 1 1 1 2
Wind_Speed
9 9 8 9 9 9 9 9 9 8 8 9 8 8 8 7 7 6 6 6 6 5 4 4 5 3 2 1 1 1 2 3 4 4 3 2 2 3 4 10 14 14 16
8 8 8 8 8 8 8 8 8 8 8 8 8 8 8 7 7 7 7 6 7 7 6 5 5 4 3 2 2 2 2 3 4 4 3 2 3 4 4 4 8 11 13
7 7 7 8 8 8 8 8 8 8 7 7 7 8 7 7 7 8 7 7 6 6 6 6 5 5 4 3 3 3 3 2 3 3 3 2 3 2 2 3 4 5 9
7 7 7 8 8 7 7 7 7 8 7 7 6 6 6 6 6 6 6 6 6 6 6 6 6 6 6 5 4 4 3 2 2 2 3 3 3 2 1 3 4 4 5
7 7 7 7 7 7 7 6 6 7 7 7 7 5 5 4 4 5 5 5 5 5 4 4 5 6 7 6 5 5 4 3 2 3 3 3 3 2 3 3 4 4 5
7 6 6 6 6 6 6 6 6 5 5 6 6 5 4 3 3 5 5 4 4 4 3 3 3 3 5 7 8 7 6 5 4 4 4 5 5 4 3 3 3 3 5
6 5 6 6 6 6 6 6 6 5 5 5 5 5 4 2 2 3 5 4 3 3 3 2 2 1 2 2 4 5 5 7 7 5 5 6 5 5 3 4 4 5 6
6 5 5 6 6 6 6 5 5 5 5 5 5 5 4 2 1 2 4 3 2 2 2 2 1 1 1 1 1 1 2 3 5 5 5 6 6 5 5 5 5 5 5
6 6 6 6 7 7 6 6 5 6 6 6 5 5 5 3 4 3 4 3 3 2 2 3 2 2 4 2 1 1 2 4 4 5 6 7 8 8 5 2 2 3 5
5 5 5 6 7 7 7 6 6 6 6 7 7 6 6 4 6 5 5 4 4 3 3 4 5 4 5 5 2 1 2 4 5 5 5 6 5 6 5 4 4 4 4
6 6 6 6 6 7 7 6 7 7 8 7 7 6 6 6 7 8 7 4 3 3 3 2 3 5 6 5 3 1 2 3 3 3 4 4 4 4 4 2 2 3 4
7 8 7 7 7 7 8 8 8 9 8 7 7 7 6 6 8 8 9 7 5 4 2 2 2 4 5 5 3 3 4 3 2 3 3 4 4 4 4 5 4 4 5
10 9 9 10 9 8 9 9 8 8 7 7 6 6 5 5 6 10 10 9 9 5 3 4 5 6 6 5 6 7 5 3 3 3 3 3 3 4 4 4 5 5 5
11 10 10 10 10 10 9 8 8 7 8 7 7 6 5 5 6 6 5 5 7 6 5 6 8 9 7 7 6 6 4 3 3 2 3 3 4 4 4 4 4 5 4
12 11 10 10 10 11 11 9 8 7 6 8 6 5 5 5 5 7 6 5 4 4 4 5 6 6 7 6 6 5 5 5 4 3 3 4 4 4 4 4 3 3 3
11 10 9 9 8 9 10 11 15 12 15 14 10 7 5 6 7 10 11 11 10 9 7 6 6 6 5 5 5 5 5 5 5 4 4 4 4 5 5 4 4 4 4
10 9 8 8 8 8 8 10 9 10 14 14 13 12 11 11 12 12 12 12 12 11 8 6 5 5 5 5 4 4 4 4 4 5 5 4 4 4 4 4 4 4 5
10 10 9 7 7 7 8 7 8 8 7 6 8 11 12 12 13 12 11 10 8 8 5 5 5 4 4 4 4 4 4 5 4 4 5 5 5 4 5 5 5 5 5
9 7 7 7 7 8 8 8 7 8 7 5 5 7 9 9 11 12 10 7 6 5 5 4 4 4 4 4 4 4 4 4 5 5 5 5 5 5 5 5 5 7 6
8 12 10 8 8 8 7 8 7 7 6 6 5 4 4 6 6 7 6 5 5 4 4 4 4 4 4 4 4 4 4 4 5 5 5 6 5 5 5 7 6 6 6
7 9 12 9 7 7 7 7 7 6 6 5 4 5 7 6 5 5 4 4 4 4 3 3 3 3 4 3 4 4 5 5 5 5 6 6 6 6 6 6 7 7 7
7 7 7 8 7 7 7 6 6 6 6 6 4 5 8 6 4 4 4 4 3 2 2 2 3 3 3 3 3 4 5 5 6 6 6 6 6 6 7 7 7 7 7
8 9 8 8 8 9 8 7 6 6 5 5 5 4 4 4 4 4 4 4 3 3 4 4 3 3 5 5 5 4 4 5 6 6 7 7 7 7 7 7 9 9 8
8 8 8 7 7 7 7 6 6 5 5 5 5 4 4 4 4 4 4 3 4 5 6 6 5 5 6 6 7 8 8 9 10 9 9 7 8 7 7 8 8 9 8
7 7 7 6 6 6 6 6 5 5 5 5 4 4 4 4 4 4 3 4 5 5 6 7 7 7 8 9 10 11 13 14 13 12 10 7 7 8 8 8 8 8 8
7 7 6 6 6 5 5 5 5 5 4 4 4 4 4 4 3 3 3 4 4 4 5 6 7 8 9 10 12 14 15 15 15 14 11 7 6 7 7 6 8 7 8
Wind_Direction
176 173 175 177 179 180 184 184 182 181 176 178 179 180 182 184 182 181 191 188 192 206 210 207 227 220 219 228 184 164 171 168 213 268 260 262 232 237 220 221 227 226 230
166 164 171 172 173 178 184 181 176 176 176 177 178 181 189 189 187 190 201 201 199 207 214 211 228 221 220 225 215 218 214 198 195 244 272 270 248 239 230 228 232 234 235
153 158 160 162 165 173 178 174 171 170 172 174 174 184 193 193 193 198 202 205 203 206 207 205 218 212 227 230 225 228 234 226 194 214 255 263 268 262 247 253 247 246 247
155 157 159 163 163 168 170 168 169 169 171 175 177 183 190 193 196 201 200 200 204 208 207 205 209 206 218 224 228 230 228 233 226 228 254 268 270 276 239 254 271 259 258
152 157 164 160 158 161 162 163 164 167 174 175 174 182 187 188 200 192 191 194 202 216 220 217 219 219 218 217 218 215 211 220 232 240 254 264 266 267 252 244 254 271 270
151 157 156 155 157 161 162 160 156 157 160 162 166 165 163 182 183 181 181 182 186 200 220 233 244 239 242 234 229 214 199 205 220 230 243 247 257 251 249 247 252 270 280
137 140 138 145 148 155 161 157 162 162 150 147 147 144 141 142 175 187 192 171 177 198 207 218 242 256 236 249 247 239 232 227 213 209 229 241 247 241 239 253 245 242 253
132 139 137 135 137 131 131 139 150 146 139 133 126 122 109 75 88 162 170 155 143 149 158 175 180 317 353 291 260 266 270 267 250 232 235 248 248 242 229 236 244 256 266
134 137 144 142 134 130 130 128 123 117 113 110 108 106 98 56 45 80 121 125 114 87 69 72 83 58 10 15 63 337 326 317 310 291 273 275 276 269 251 244 259 261 276
145 147 145 141 136 133 130 119 109 113 115 106 93 87 86 67 48 64 100 103 101 85 56 49 57 54 32 37 52 38 337 320 334 338 331 328 320 314 290 236 238 248 262
134 124 116 117 121 121 117 115 114 113 105 97 90 75 68 60 51 63 83 91 105 98 74 38 25 32 33 32 39 33 310 318 331 333 332 336 340 340 332 310 251 234 247
107 102 98 97 103 106 106 105 107 109 102 95 90 75 56 45 46 52 62 69 79 91 73 29 11 18 28 27 24 0 357 8 11 8 4 354 347 339 327 321 314 290 257
93 89 86 83 77 83 96 101 97 98 100 96 90 82 61 43 39 45 51 55 60 67 52 35 33 33 29 27 22 20 26 33 30 24 2 338 322 318 325 329 329 325 310
93 90 87 85 79 71 73 81 90 93 98 96 92 86 70 50 34 27 33 39 44 49 44 37 41 42 42 29 21 24 31 32 32 10 337 325 328 338 341 338 334 335 331
92 91 89 86 86 79 72 64 75 70 95 106 102 99 86 62 30 37 48 43 41 41 44 48 46 40 36 29 24 21 21 21 17 2 356 348 346 348 342 341 341 342 329
91 88 91 94 93 93 92 76 58 69 72 75 81 88 73 74 67 59 56 55 55 59 65 56 45 41 38 30 26 20 19 15 7 3 1 355 349 342 336 337 340 333 320
93 94 94 96 99 101 100 102 92 64 59 62 63 67 71 67 62 59 58 61 58 61 64 55 46 36 33 30 27 24 14 4 9 12 4 353 346 338 335 334 334 331 322
82 87 90 92 96 98 98 97 97 96 79 49 42 52 59 60 58 54 55 61 51 46 52 51 42 33 32 27 22 16 7 2 2 359 352 345 342 340 336 331 327 325 319
79 83 87 88 91 95 97 95 92 89 84 71 52 42 44 51 51 50 55 63 62 48 41 39 35 31 27 20 14 8 6 4 357 353 350 345 339 337 332 327 323 323 321
78 87 90 91 91 93 96 98 96 92 87 77 65 51 44 56 53 41 43 50 55 47 37 35 32 29 20 14 10 9 9 3 355 349 340 335 331 328 324 321 319 317 312
81 86 87 87 88 94 97 98 100 98 93 86 71 65 80 75 67 57 50 44 45 41 37 34 25 20 18 13 12 8 1 347 338 333 329 326 323 320 314 310 308 307 306
84 84 84 88 89 89 92 93 95 94 91 86 69 63 71 73 70 62 49 35 31 26 33 36 31 15 12 4 6 357 344 334 329 327 322 318 315 313 312 311 310 309 306
87 87 84 85 88 90 88 86 89 90 87 85 81 74 68 66 63 55 44 33 30 32 34 40 35 19 19 21 17 2 336 322 314 311 311 311 312 311 310 308 308 310 308
87 90 90 88 87 88 91 89 88 88 87 81 74 72 68 65 59 52 42 30 34 30 35 38 39 33 22 15 4 354 344 332 324 313 305 300 302 305 306 305 305 306 307
90 92 93 93 92 92 93 92 88 85 85 86 84 77 68 62 55 46 31 30 32 33 35 40 42 33 17 5 356 349 344 340 335 327 313 297 294 297 300 303 306 308 310
90 93 94 95 95 95 96 96 90 87 83 83 84 83 77 67 54 40 27 28 30 35 37 37 32 22 11 2 353 349 347 345 341 337 328 307 296 300 308 306 309 312 314
Height
1491 1494 1498 1501 1506 1510 1514 1518 1521 1524 1527 1530 1533 1535 1538 1540 1542 1544 1545 1546 1548 1549 1550 1551 1552 1553 1554 1555 1555 1556 1556 1556 1556 1556 1556 1556 1556 1557 1557 1557 1558 1558 1558
1490 1493 1496 1499 1504 1507 1511 1514 1518 1521 1524 1527 1530 1532 1535 1537 1539 1541 1542 1544 1545 1546 1547 1548 1549 1550 1551 1552 1552 1552 1553 1553 1553 1552 1553 1553 1553 1553 1553 1554 1554 1554 1554
1491 1493 1496 1498 1502 1505 1508 1512 1515 1518 1521 1524 1527 1530 1532 1534 1536 1538 1540 1541 1542 1543 1544 1545 1546 1547 1548 1548 1549 1549 1549 1549 1549 1549 1549 1549 1549 1550 1549 1549 1549 1549 1549
1491 1493 1495 1498 1500 1504 1507 1509 1512 1515 1518 1521 1524 1527 1529 1531 1533 1535 1537 1538 1539 1540 1541 1542 1543 1544 1544 1545 1545 1545 1545 1546 1545 1545 1545 1545 1545 1545 1545 1544 1544 1544 1543
1491 1493 1495 1497 1500 1502 1505 1507 1510 1512 1515 1518 1522 1524 1526 1529 1530 1532 1533 1535 1535 1537 1538 1538 1539 1540 1540 1541 1541 1541 1542 1541 1541 1541 1541 1541 1540 1540 1540 1539 1539 1538 1538
1491 1492 1494 1496 1499 1501 1503 1506 1508 1510 1513 1516 1518 1521 1523 1525 1527 1529 1530 1531 1532 1533 1534 1535 1536 1536 1536 1537 1537 1537 1537 1537 1537 1537 1536 1536 1535 1535 1535 1534 1533 1532 1531
1491 1492 1494 1496 1498 1500 1503 1505 1507 1509 1511 1514 1516 1519 1521 1523 1524 1526 1527 1528 1528 1529 1530 1531 1532 1532 1532 1533 1533 1533 1533 1533 1533 1532 1532 1531 1531 1530 1530 1529 1528 1527 1525
1490 1492 1494 1496 1498 1500 1502 1504 1506 1508 1511 1513 1515 1517 1518 1520 1522 1523 1524 1525 1525 1526 1527 1528 1528 1529 1529 1529 1528 1528 1528 1528 1528 1527 1527 1526 1526 1525 1524 1523 1522 1521 1520
1490 1492 1494 1496 1497 1499 1501 1503 1505 1508 1509 1511 1513 1515 1517 1518 1519 1520 1521 1522 1522 1523 1524 1524 1525 1525 1525 1525 1524 1524 1524 1523 1523 1523 1522 1521 1520 1519 1519 1518 1516 1515 1513
1490 1493 1495 1496 1498 1499 1501 1503 1505 1508 1509 1510 1512 1514 1515 1516 1517 1517 1517 1518 1519 1519 1521 1521 1522 1522 1522 1521 1521 1520 1519 1519 1519 1518 1517 1516 1515 1514 1513 1512 1511 1510 1508
1491 1493 1495 1496 1498 1500 1502 1504 1506 1508 1508 1510 1511 1513 1513 1514 1515 1515 1515 1516 1516 1517 1518 1519 1519 1519 1518 1518 1517 1517 1516 1515 1514 1513 1512 1512 1511 1509 1508 1507 1506 1505 1503
1491 1493 1495 1497 1498 1500 1502 1504 1506 1507 1509 1510 1511 1512 1513 1514 1514 1514 1514 1515 1515 1516 1516 1516 1516 1516 1516 1515 1515 1514 1513 1512 1511 1510 1509 1508 1506 1505 1504 1503 1501 1500 1498
1491 1493 1495 1497 1499 1501 1502 1504 1506 1507 1509 1510 1512 1512 1513 1514 1514 1514 1514 1514 1514 1514 1514 1514 1514 1514 1514 1513 1512 1511 1510 1509 1508 1507 1506 1504 1503 1502 1500 1499 1497 1495 1494
1492 1494 1496 1498 1499 1501 1503 1505 1507 1508 1510 1511 1512 1513 1513 1514 1514 1514 1514 1514 1513 1513 1513 1513 1513 1512 1512 1511 1510 1510 1509 1508 1506 1505 1504 1502 1501 1499 1497 1495 1492 1490 1488
1493 1495 1497 1499 1501 1503 1504 1506 1508 1510 1512 1512 1513 1514 1514 1514 1514 1514 1514 1513 1513 1513 1512 1512 1511 1511 1511 1510 1509 1508 1507 1506 1505 1503 1502 1500 1498 1496 1493 1491 1489 1486 1484
1495 1497 1499 1501 1503 1505 1506 1508 1510 1512 1513 1514 1515 1515 1515 1515 1515 1515 1514 1513 1513 1513 1513 1512 1511 1511 1510 1509 1508 1507 1506 1504 1503 1501 1499 1497 1495 1493 1490 1488 1486 1483 1481
1498 1499 1501 1503 1505 1507 1508 1509 1511 1513 1515 1515 1516 1516 1516 1516 1516 1515 1515 1514 1514 1514 1513 1512 1511 1511 1510 1509 1507 1506 1504 1503 1501 1499 1497 1494 1492 1490 1487 1484 1482 1480 1477
1501 1503 1505 1506 1508 1510 1511 1512 1513 1514 1516 1517 1518 1518 1518 1518 1517 1517 1516 1516 1515 1514 1513 1512 1511 1510 1509 1508 1506 1504 1503 1501 1499 1496 1494 1492 1489 1486 1483 1481 1478 1476 1473
1506 1507 1508 1510 1511 1513 1514 1515 1516 1517 1518 1519 1519 1520 1520 1519 1518 1518 1517 1516 1515 1515 1514 1513 1511 1510 1508 1507 1505 1503 1501 1498 1496 1493 1491 1488 1486 1483 1480 1478 1475 1473 1470
1510 1511 1512 1513 1515 1516 1517 1518 1519 1520 1520 1521 1521 1521 1521 1520 1519 1519 1518 1517 1516 1515 1514 1512 1511 1509 1508 1506 1504 1501 1499 1496 1493 1491 1488 1485 1482 1480 1477 1474 1472 1469 1466
1513 1514 1515 1516 1517 1519 1519 1520 1521 1521 1522 1522 1522 1522 1522 1521 1520 1520 1519 1518 1516 1515 1513 1512 1510 1508 1506 1504 1502 1499 1496 1494 1491 1488 1485 1482 1479 1476 1474 1471 1468 1466 1463
1516 1517 1518 1519 1520 1521 1521 1522 1523 1523 1523 1523 1523 1523 1523 1522 1521 1520 1519 1518 1516 1515 1513 1511 1509 1507 1505 1502 1499 1497 1494 1491 1487 1484 1481 1478 1476 1473 1470 1468 1465 1462 1460
1519 1520 1521 1522 1522 1523 1523 1524 1524 1524 1524 1524 1524 1524 1523 1523 1522 1520 1519 1518 1516 1514 1512 1510 1508 1506 1503 1500 1497 1494 1491 1488 1484 1481 1478 1475 1472 1470 1467 1464 1462 1459 1457
1522 1523 1523 1524 1524 1524 1525 1525 1525 1525 1525 1525 1525 1524 1523 1523 1522 1520 1519 1517 1515 1513 1511 1509 1507 1504 1501 1498 1495 1492 1489 1485 1482 1479 1476 1473 1470 1467 1464 1462 1459 1457 1454
1525 1525 1525 1525 1525 1526 1526 1526 1526 1526 1526 1526 1525 1524 1524 1523 1522 1520 1519 1517 1515 1512 1510 1508 1506 1503 1500 1497 1493 1490 1486 1483 1479 1476 1474 1471 1468 1465 1462 1460 1457 1455 1452
1526 1526 1526 1526 1527 1527 1527 1527 1527 1527 1526 1526 1525 1525 1524 1523 1521 1520 1518 1516 1514 1512 1509 1507 1504 1502 1499 1495 1492 1488 1485 1481 1478 1475 1472 1469 1466 1464 1461 1458 1456 1453 1451